Location: Cieszkowy
(50.3290°N, 20.5336°E)
Time: 14:13:24
(UTC+00:00)

CENTAUR R/B - Pass Details

Date: 15 June 2024
Orbit: 666 x 1518 km, 63.4° (Epoch: 14 July)

Event Time Altitude Azimuth Distance (km) Brightness Sun altitude
Exits shadow 00:12:01 15° 230° (SW) 2,192 3.8 -13.5°
Maximum altitude 00:17:00 78° 315° (NW) 1,026 2.7 -13.2°
Drops below altitude 10° 00:24:22 10° 43° (NE) 3,116 6.4 -12.7°
Sets 00:27:26 0° 45° (NE) 4,213 7.3 -12.5°
